Location: Omaha
(41.2590°N, 95.9380°W)
Time: 03:05:03
(UTC-05:00)

N. Korean satellite - Pass Details

Date: 14 October 2017
Orbit: 459 x 517 km, 97.2° (Epoch: 22 October)

Event Time Altitude Azimuth Distance (km) Brightness Sun altitude
Rises 19:57:05 0° 187° (S) 2,549 10.3 -14.5°
Reaches altitude 10° 19:59:19 10° 198° (SSW) 1,663 9.5 -14.9°
Maximum altitude 20:02:33 32° 263° (W) 845 8.5 -15.5°
Drops below altitude 10° 20:05:45 10° 328° (NNW) 1,647 9.7 -16.1°
Sets 20:07:57 0° 338° (NNW) 2,521 10.5 -16.6°
